Regional Weather Roundup
Issued by NWS

Home | Current Version | Previous Version | Graphics & Text | Print | Product List | Glossary On
Versions: 1 2 3 4 5 6 7 8 9 10 11 12 13 14 15 16 17 18 19 20 21 22 23 24 25 26 27 28 29 30 31 32 33 34 35 36 37 38 39 40 41 42 43 44 45 46 47 48 49 50
000
ASUS43 KBIS 271501
RWRND

NORTH DAKOTA REGIONAL WEATHER ROUNDUP
NATIONAL WEATHER SERVICE BISMARCK ND
900 AM CST FRI FEB 27 2015

NOTE: "FAIR" INDICATES FEW OR NO CLOUDS BELOW 12,000 FEET WITH NO
SIGNIFICANT WEATHER AND/OR OBSTRUCTIONS TO VISIBILITY.


NDZ001>003-009>011-017-271600-
NORTHWEST NORTH DAKOTA

CITY           SKY/WX    TMP DP  RH WIND       PRES   REMARKS
WILLISTON      MOSUNNY   -4  -9  79 CALM      30.26F
MINOT          PTSUNNY   -3 -10  72 SW13      30.32S WCI -22
MINOT AFB      PTSUNNY   -3  -9  74 SW9       30.31F WCI -19
$$

NDZ018>021-031>035-040>046-271600-
SOUTHWEST NORTH DAKOTA

CITY           SKY/WX    TMP DP  RH WIND       PRES   REMARKS
BISMARCK       MOSUNNY   -7 -12  79 SE3       30.40F
DICKINSON      SUNNY      2  -5  72 S13       30.20F WCI -15
GARRISON         N/A    -11 -11 100 CALM      30.32F
HETTINGER ARPT SUNNY      1  -5  75 S6        30.24F WCI -10
$$

NDZ004>008-012>016-024-026-027-054-271600-
NORTHEAST NORTH DAKOTA

CITY           SKY/WX    TMP DP  RH WIND       PRES   REMARKS
GRAND FORKS    MOSUNNY   -6 -13  71 SW5       30.44S WCI -17
GRND FRKS AFB  MOSUNNY   -2 -11  64 W7        30.43F WCI -15
DEVILS LAKE    MOSUNNY  N/A N/A N/A MISG        N/A
$$

NDZ022-023-025-028>030-036>039-047>053-271600-
SOUTHEAST NORTH DAKOTA

CITY           SKY/WX    TMP DP  RH WIND       PRES   REMARKS
FARGO          SUNNY     -4 -12  68 SW9       30.49S WCI -20
JAMESTOWN      MOSUNNY   -5 -11  75 SW5       30.41F WCI -16
$$



USA.gov is the U.S. government's official web portal to all federal, state and local government web resources and services.